Weather History for Alexandria, LA

Change the Weather History Date:

Wednesday, February 26, 2014

  Actual Average Record
Temperature  
Mean Temperature 43 °F 55 °F  
Max Temperature 51 °F 66 °F 85 °F (1977)
Min Temperature 34 °F 44 °F 24 °F (1914)
Degree Days  
Heating Degree Days 22 11  
Month to date heating degree days 403 353  
Since 1 July heating degree days 1972 1644  
Moisture  
Dew Point 36 °F    
Average Humidity 71    
Maximum Humidity 92    
Minimum Humidity 49    
Precipitation  
Precipitation 0.34 in 0.15 in 2.03 in (2001)
Month to date precipitation 4.65 4.14  
Year to date precipitation 6.37 9.36  
Snow  
Snow 0.00 in - T in (1952)
Month to date snowfall 0.3  
Since 1 July snowfall 4.8  
Snow Depth 0.00 in    
Sea Level Pressure  
Sea Level Pressure 30.08 in    
Wind  
Wind Speed 11 mph (NNE)    
Max Wind Speed 21 mph    
Max Gust Speed 31 mph    
Visibility 9 miles    
Events Rain    
T = Trace of Precipitation, MM = Missing Value Source: NWS Daily Summary

Daily Weather History Graph

Daily Weather History Graph

Search for Another Location

Airport:

Trip Planner

Search our weather history database for the weather conditions in past years. The results will help you decide how hot, cold, wet, or windy it might be!

Date:

Astronomy

Feb. 26, 2014 Rise Set
Actual Time 6:40 AM CST 6:06 PM CST
Civil Twilight 6:15 AM CST 6:30 PM CST
Nautical Twilight 5:47 AM CST 6:58 PM CST
Astronomical Twilight 5:19 AM CST 7:27 PM CST
Moon 4:18 AM CST (2/26) 3:28 PM CST (2/26)
Length of Visible Light 12h 14m
Length of Day
11h 25m
Waning Crescent, 10% of the Moon is Illuminated
Feb 26
Waning Crescent
Mar 1
New
Mar 8
First Quarter
Mar 16
Full
Mar 23
Last Quarter

Hourly Weather History & Observations

Time (CST) Temp. Windchill Dew Point Humidity Pressure Visibility Wind Dir Wind Speed Gust Speed Precip Events Conditions
12:06 AM 51.1 °F - 48.9 °F 92% 29.96 in 10.0 mi North 6.9 mph - 0.00 in   Overcast
12:33 AM 51.1 °F - 48.0 °F 89% 29.99 in 10.0 mi North 13.8 mph 20.7 mph 0.00 in Rain Light Rain
12:42 AM 50.0 °F - 48.0 °F 93% 29.99 in 10.0 mi North 13.8 mph 21.9 mph 0.00 in   Overcast
12:53 AM 50.0 °F - 46.9 °F 89% 30.00 in 8.0 mi NNE 13.8 mph 21.9 mph 0.00 in Rain Light Rain
12:56 AM 50.0 °F - 46.9 °F 89% 29.98 in 8.0 mi North 12.7 mph 20.7 mph 0.00 in Rain Light Rain
1:07 AM 48.9 °F - 46.0 °F 90% 29.97 in 10.0 mi NNE 10.4 mph 23.0 mph 0.00 in Rain Light Rain
1:32 AM 48.0 °F - 44.1 °F 86% 29.96 in 10.0 mi NE 15.0 mph 23.0 mph 0.00 in Rain Light Rain
1:51 AM 46.4 °F 40.4 °F 44.6 °F 93% 30.00 in 2.5 mi North 13.8 mph 21.9 mph 0.13 in Rain Heavy Rain
1:53 AM 46.0 °F 39.3 °F 44.1 °F 93% 30.01 in 2.5 mi North 16.1 mph 21.9 mph 0.14 in Rain Heavy Rain
2:00 AM 46.0 °F 39.3 °F 43.0 °F 89% 29.98 in 4.0 mi NNE 16.1 mph 26.5 mph 0.03 in Rain Heavy Rain
2:09 AM 45.0 °F 38.5 °F 43.0 °F 93% 29.99 in 3.0 mi NNE 13.8 mph 20.7 mph 0.09 in Rain Heavy Rain
2:25 AM 45.0 °F 38.9 °F 42.1 °F 90% 29.99 in 7.0 mi NNE 12.7 mph 21.9 mph 0.13 in Rain Light Rain
2:53 AM 45.0 °F 39.3 °F 42.1 °F 90% 30.03 in 10.0 mi North 11.5 mph 23.0 mph 0.13 in   Overcast
3:53 AM 44.1 °F 39.0 °F 42.1 °F 93% 30.04 in 10.0 mi North 9.2 mph - 0.03 in Rain Light Rain
4:17 AM 44.1 °F 36.8 °F 39.9 °F 85% 30.01 in 10.0 mi NNE 16.1 mph 28.8 mph 0.00 in Rain Light Rain
4:34 AM 43.0 °F 36.0 °F 39.0 °F 86% 30.03 in 10.0 mi North 13.8 mph 24.2 mph 0.01 in Rain Light Rain
4:53 AM 42.1 °F 34.5 °F 39.0 °F 89% 30.06 in 10.0 mi NNE 15.0 mph 24.2 mph 0.01 in Rain Light Rain
5:53 AM 41.0 °F 33.9 °F 37.9 °F 89% 30.10 in 10.0 mi North 12.7 mph 24.2 mph 0.01 in Rain Light Rain
6:01 AM 41.0 °F 32.5 °F 37.9 °F 89% 30.08 in 10.0 mi North 17.3 mph 27.6 mph 0.00 in Rain Light Rain
6:08 AM 41.0 °F 33.1 °F 37.0 °F 86% 30.08 in 10.0 mi North 15.0 mph 27.6 mph 0.00 in Rain Light Rain
6:20 AM 39.9 °F 31.4 °F 37.0 °F 89% 30.08 in 8.0 mi NNE 16.1 mph 31.1 mph 0.01 in Rain Light Rain
6:42 AM 39.9 °F 33.4 °F 37.0 °F 89% 30.09 in 10.0 mi North 10.4 mph 19.6 mph 0.02 in Rain Light Rain
6:53 AM 39.9 °F 32.1 °F 37.0 °F 89% 30.10 in 10.0 mi North 13.8 mph 21.9 mph 0.02 in Rain Light Rain
7:48 AM 37.4 °F 28.2 °F 33.8 °F 87% 30.11 in 10.0 mi NNE 16.1 mph 25.3 mph 0.00 in   Overcast
7:53 AM 37.9 °F 28.5 °F 34.0 °F 86% 30.13 in 10.0 mi NNE 17.3 mph 24.2 mph 0.00 in   Overcast
8:13 AM 37.9 °F 30.9 °F 35.1 °F 89% 30.14 in 10.0 mi NNE 10.4 mph 21.9 mph N/A   Overcast
8:53 AM 37.9 °F 29.2 °F 34.0 °F 86% 30.18 in 9.0 mi North 15.0 mph 23.0 mph N/A   Overcast
9:21 AM 39.0 °F 30.6 °F 33.1 °F 79% 30.15 in 10.0 mi NNE 15.0 mph 24.2 mph N/A   Overcast
9:42 AM 37.9 °F 28.2 °F 30.0 °F 73% 30.14 in 10.0 mi NNE 18.4 mph 23.0 mph N/A   Overcast
9:53 AM 39.0 °F 30.3 °F 30.0 °F 70% 30.15 in 10.0 mi North 16.1 mph 24.2 mph N/A   Overcast
10:53 AM 42.1 °F 34.5 °F 28.9 °F 60% 30.15 in 10.0 mi NNE 15.0 mph - N/A   Overcast
11:53 AM 44.1 °F 37.7 °F 30.0 °F 58% 30.15 in 10.0 mi North 12.7 mph 18.4 mph N/A   Clear
12:51 PM 41.0 °F 32.8 °F 30.2 °F 65% 30.11 in 10.0 mi North 16.1 mph 23.0 mph N/A   Mostly Cloudy
12:53 PM 41.0 °F 33.1 °F 30.9 °F 67% 30.13 in 10.0 mi North 15.0 mph 23.0 mph N/A   Mostly Cloudy
1:53 PM 41.0 °F 35.2 °F 30.0 °F 65% 30.11 in 10.0 mi North 9.2 mph - N/A   Mostly Cloudy
2:08 PM 42.1 °F 36.6 °F 30.0 °F 62% 30.09 in 10.0 mi North 9.2 mph - N/A   Mostly Cloudy
2:53 PM 43.0 °F 36.8 °F 28.9 °F 58% 30.09 in 10.0 mi NNE 11.5 mph - N/A   Clear
3:53 PM 44.1 °F 38.6 °F 26.1 °F 49% 30.08 in 10.0 mi North 10.4 mph - N/A   Clear
4:53 PM 43.0 °F 36.8 °F 27.0 °F 53% 30.09 in 10.0 mi North 11.5 mph - N/A   Clear
5:53 PM 42.1 °F 35.7 °F 26.1 °F 53% 30.09 in 10.0 mi North 11.5 mph - N/A   Clear
6:53 PM 41.0 °F 34.7 °F 26.1 °F 55% 30.12 in 10.0 mi North 10.4 mph - N/A   Clear
7:53 PM 39.9 °F 34.5 °F 26.1 °F 58% 30.14 in 10.0 mi NNE 8.1 mph - N/A   Clear
8:53 PM 39.0 °F 35.7 °F 26.1 °F 60% 30.14 in 10.0 mi NE 4.6 mph - N/A   Clear
9:53 PM 37.9 °F 34.4 °F 27.0 °F 65% 30.15 in 10.0 mi NNE 4.6 mph - N/A   Clear
10:53 PM 37.0 °F 34.5 °F 27.0 °F 67% 30.15 in 10.0 mi NE 3.5 mph - N/A   Clear
11:53 PM 35.1 °F 32.2 °F 27.0 °F 72% 30.15 in 10.0 mi NE 3.5 mph - N/A   Clear